[Iaude] MPEC V65: 2016 VE2 [a=2.18,e=0.42,i=19.7,H=19.3]

mpec at si.edu mpec at si.edu
Tue Nov 8 19:02:30 EST 2016


M.P.E.C. 2016-V65                                Issued 2016 Nov. 8, 23:57 UT
 
     The Minor Planet Electronic Circulars contain information on unusual
         minor planets and routine data on comets.  They are published
    on behalf of Division F of the International Astronomical Union by the
          Minor Planet Center, Smithsonian Astrophysical Observatory,
                          Cambridge, MA 02138, U.S.A.

             Prepared using the Tamkin Foundation Computer Network

                              MPC at CFA.HARVARD.EDU
            URL http://www.minorplanetcenter.net/    ISSN 1523-6714


                                   2016 VE2
 
Observations:
     K16V02E* C2016 11 05.15281 00 13 11.50 -10 03 45.4          19.8 VqEV065G96
     K16V02E  C2016 11 05.15716 00 13 11.48 -10 03 34.7          20.7 VqEV065G96
     K16V02E  C2016 11 05.16147 00 13 11.46 -10 03 24.4          20.6 VqEV065G96
     K16V02E  C2016 11 05.16578 00 13 11.48 -10 03 13.8          20.1 VqEV065G96
     K16V02E  C2016 11 05.22352 00 13 11.37 -10 00 53.9          20.4 VqEV065I52
     K16V02E  C2016 11 05.22592 00 13 11.37 -10 00 48.1          20.7 VqEV065I52
     K16V02E  C2016 11 05.22831 00 13 11.35 -10 00 42.2          20.6 VqEV065I52
     K16V02E  C2016 11 05.23071 00 13 11.31 -10 00 37.1          20.6 VqEV065I52
     K16V02E KC2016 11 05.44585 00 13 12.33 -09 51 38.8          20.4 RtEV065474
     K16V02E KC2016 11 05.44937 00 13 12.28 -09 51 31.2          20.2 RtEV065474
     K16V02E KC2016 11 05.45289 00 13 12.30 -09 51 22.3          19.4 RtEV065474
     K16V02E  C2016 11 06.16839 00 13 16.32 -09 23 05.9                qEV065G96
     K16V02E  C2016 11 06.17123 00 13 16.33 -09 22 58.7          20.3 VqEV065G96
     K16V02E  C2016 11 06.17422 00 13 16.35 -09 22 51.9          20.7 VqEV065G96
     K16V02E HC2016 11 06.17685 00 13 16.34 -09 22 45.3          20.4 RoEV065291
     K16V02E  C2016 11 06.17742 00 13 16.33 -09 22 44.3          20.6 VqEV065G96
     K16V02E HC2016 11 06.17850 00 13 16.35 -09 22 41.1          20.5 RoEV065291
     K16V02E HC2016 11 06.18016 00 13 16.35 -09 22 36.8          20.3 RoEV065291
     K16V02E  C2016 11 07.18310 00 13 23.90 -08 43 12.5          20.1 VqEV065G96
     K16V02E  C2016 11 07.18626 00 13 23.90 -08 43 04.5          20.2 VqEV065G96
     K16V02E  C2016 11 07.18946 00 13 23.94 -08 42 57.3          20.4 VqEV065G96
     K16V02E  C2016 11 07.19259 00 13 23.91 -08 42 49.7          20.4 VqEV065G96
     K16V02E  C2016 11 07.20450 00 13 23.93 -08 42 22.5          20.4 VoEV065691
     K16V02E  C2016 11 07.21307 00 13 24.00 -08 42 02.2          20.5 VoEV065691
     K16V02E  C2016 11 07.22166 00 13 24.02 -08 41 41.8          20.4 VoEV065691
     K16V02E KC2016 11 08.10030 00 13 33.53 -08 07 45.2          19.4 RoEV065291
     K16V02E KC2016 11 08.10258 00 13 33.53 -08 07 40.1          19.7 RoEV065291
     K16V02E KC2016 11 08.10483 00 13 33.55 -08 07 35.2          19.6 RoEV065291
 
Observer details:
291 LPL/Spacewatch II.  Observers A. F. Tubbiolo, R. S. McMillan.  1.8-m f/2.7
    reflector + CCD.
474 Mount John Observatory, Lake Tekapo.  Observers A. C. Gilmore,
    P. M. Kilmartin.  Measurer P. M. Kilmartin.  1.0-m f/7.7 reflector + CCD.
691 Steward Observatory, Kitt Peak.  Observer A. F. Tubbiolo.  0.9-m f/3
    reflector + CCD.
G96 Mt. Lemmon Survey.  Observers A. R. Gibbs, R. A. Kowalski.  Measurers
    E. J. Christensen, D. C. Fuls, A. R. Gibbs, A. D. Grauer, J. A. Johnson,
    R. A. Kowalski, S. M. Larson, G. J. Leonard, R. G. Matheny, R. L. Seaman,
    F. C. Shelly.  1.5-m reflector + 10K CCD.
I52 Steward Observatory, Mt. Lemmon Station.  Observer R. G. Matheny.
    Measurers E. J. Christensen, D. C. Fuls, A. R. Gibbs, A. D. Grauer,
    J. A. Johnson, R. A. Kowalski, S. M. Larson, G. J. Leonard, R. G. Matheny,
    R. L. Seaman, F. C. Shelly.  1.0-m reflector + CCD.
 
Orbital elements:
2016 VE2                                                 Earth MOID = 0.4044 AU
Epoch 2016 July 31.0 TT = JDT 2457600.5                 MPC
M 355.65374              (2000.0)            P               Q
n   0.30719047     Peri.  285.33040     +0.77467396     +0.59611015
a   2.1753587      Node    38.76588     -0.36837707     +0.69665402
e   0.4246323      Incl.   19.69607     -0.51398306     +0.39915643
P   3.21           H   19.3           G   0.15           U   8
Residuals in seconds of arc
161105 G96  0.0   0.2-    161105 474  0.4+  0.3-    161107 G96  0.4+  0.2-
161105 G96  0.2-  0.1-    161106 G96  0.0   0.3-    161107 G96  0.3-  0.0
161105 G96  0.4-  0.2-    161106 G96  0.1+  0.1+    161107 691  0.8-  0.7-
161105 G96  0.0   0.0     161106 G96  0.4+  0.2-    161107 691  0.3-  0.4-
161105 I52  0.3-  0.0     161106 291  0.0   0.0     161107 691  0.5-  0.1-
161105 I52  0.2-  0.0     161106 G96  0.0   0.2-    161108 291  0.2+  0.2+
161105 I52  0.5-  0.1+    161106 291  0.1+  0.3+    161108 291  0.0   0.1+
161105 I52  1.0-  0.6-    161106 291  0.1+  0.7+    161108 291  0.0   0.2-
161105 474  0.9+  0.2+    161107 G96  0.1+  0.6-
161105 474  0.1+  0.7-    161107 G96  0.1-  0.0

Ephemeris:
2016 VE2                 a,e,i = 2.18, 0.42, 20                  q = 1.2516
Date    TT    R. A. (2000) Decl.     Delta      r     Elong.  Phase     V
2016 10 09    00 31 53.9 -32 07 52   0.4371  1.3668   141.1    27.3    19.4
...
2016 10 24    00 16 11.3 -19 06 54   0.5127  1.4290   140.8    26.1    19.8
...
2016 11 01    00 13 21.4 -12 57 34   0.5723  1.4656   137.3    27.3    20.1
...
2016 11 07    00 13 22.3 -08 50 13   0.6251  1.4943   134.0    28.5    20.4
2016 11 08    00 13 32.0 -08 11 29   0.6345  1.4992   133.4    28.7    20.5
2016 11 09    00 13 44.2 -07 33 27   0.6441  1.5041   132.8    28.9    20.5
...
2016 11 15    00 15 47.5 -03 59 26   0.7050  1.5341   129.0    30.1    20.8
...
2016 11 23    00 20 27.6 +00 11 20   0.7947  1.5751   123.9    31.4    21.1
...
2016 12 08    00 33 57.3 +06 36 45   0.9847  1.6546   114.3    32.9    21.7

A. U. Tomatic                (C) Copyright 2016 MPC           M.P.E.C. 2016-V65




More information about the Iaude mailing list